Location: Carrizal
(9.8472°N, 67.3428°W)
Time: 05:12:23
(UTC+00:00)

BREEZE-M DEB (TANK) - Pass Details

Date: 13 April 2024
Orbit: 353 x 16061 km, 49.5° (Epoch: 23 May)

Event Time Altitude Azimuth Distance (km) Brightness Sun altitude
Rises 23:09:24 0° 346° (NNW) 2,209 5.8 -8.0°
Reaches altitude 10° 23:11:38 10° 13° (NNE) 1,321 4.3 -8.5°
Maximum altitude 23:13:18 16° 57° (ENE) 1,142 3.5 -9.0°
Enters shadow 23:14:49 12° 91° (E) 1,516 3.9 -9.3°
